[[{"header":{"parameterUnit":"m.s-1","parameterCategory":1,"la1":30.2991,"la2":30.254,"lo1":-89.0895,"lo2":-89.0444,"dy":0.0017,"dx":0.0017,"nx":28,"ny":28,"refTime":"2024-09-30T09:00:00:Z","depth":0,"parameterNumber":2,"parameterNumberName":"U-component_of_WINDS"},"data":[0,0,0,0,0,0,0,0,0,0,0,0,0,0,0,0,0,0,0,0,0,0,0,0,0,0,0,0,0,0,0,0,0,0,0,0,0,0,0,0,0,0,0,0,0,0,0,0,0,0,0,0,0,0,0,0,0,0,1.3961,1.3962,0,1.4033,1.4034,1.4035,1.4035,1.4034,1.4033,1.4032,1.4105,1.4108,1.4111,0,0,0,0,0,0,0,0,0,0,0,0,0,1.382,1.3823,1.3961,1.3962,1.3963,1.4033,1.4034,1.4035,1.4035,1.4034,1.4032,1.4031,1.4104,1.4108,1.4111,0,0,0,0,0,0,0,0,0,0,0,0,0,1.3886,1.3824,1.3961,1.3971,1.3972,1.4033,1.4034,1.4036,1.4035,1.4034,1.4032,1.4031,1.4103,1.4107,1.4112,1.4166,0,0,1.4125,1.4126,0,0,0,0,0,0,0,0,1.3882,1.3891,1.3968,1.397,1.3972,1.4023,1.4012,1.4079,1.4035,1.4011,1.4032,1.403,1.4079,1.4085,1.4102,1.417,1.4173,1.4125,1.4128,1.4129,1.4131,0,0,0,0,0,0,0,1.3878,1.3888,1.3989,1.3969,1.3972,1.3971,1.3979,1.4024,1.4052,1.4013,1.4013,1.4022,1.408,1.4098,1.4104,1.4174,1.4125,1.4129,1.4131,1.4133,1.429,1.4291,0,0,0,0,0,0,1.3871,1.3884,1.3987,1.3992,1.3923,1.3975,1.3984,1.4008,1.4052,1.4057,1.4023,1.4022,1.4091,1.4099,1.4106,1.4172,1.4129,1.4133,1.4136,1.4288,1.429,1.4292,0,0,0,0,0,0,1.3868,1.388,1.3984,1.3938,1.3951,1.3979,1.4007,1.4011,1.4029,1.4059,1.4064,1.4036,1.409,1.41,1.4151,1.4175,1.4135,1.4139,1.4286,1.4289,1.4291,1.4306,0,0,0,0,0,0,1.3864,1.3879,1.3901,1.3938,1.3954,1.4028,1.4008,1.4013,1.4036,1.4035,1.4073,1.4078,1.409,1.4145,1.4156,1.418,1.4142,1.4284,1.4287,1.429,1.4303,1.4308,1.4312,0,0,0,0,0,1.3859,1.3902,1.3902,1.3914,1.3981,1.403,1.4038,1.4052,1.4038,1.4059,1.4079,1.4077,1.4171,1.415,1.4162,1.4188,1.4283,1.4286,1.429,1.4301,1.4307,1.4312,0,0,0,0,0,0,1.3866,1.3907,1.3907,1.3964,1.3993,1.403,1.4057,1.4058,1.4092,1.4089,1.4104,1.4112,1.4163,1.4181,1.4157,1.4243,1.4225,1.4231,1.4229,1.4236,1.424,1.4234,1.4146,0,0,0,0,0,1.3874,1.391,1.3944,1.3991,1.4006,1.4029,1.4051,1.4058,1.4089,1.4102,1.4125,1.4155,1.4191,1.4215,1.425,1.4306,1.4314,1.433,1.4335,1.4338,1.4343,1.4373,1.438,1.4304,1.4303,1.4303,0,0,1.3891,1.3918,1.394,1.3993,1.4017,1.4053,1.4039,1.4079,1.4106,1.4108,1.4157,1.4175,1.4209,1.4263,1.4288,1.428,1.4366,1.4343,1.4346,1.4349,1.4378,1.4385,1.4391,1.4306,1.4306,1.4305,0,0,1.394,1.3965,1.4006,1.403,1.4066,1.4082,1.4091,1.4128,1.414,1.419,1.4191,1.4224,1.4286,1.431,1.433,1.4389,1.4388,1.44,1.4424,1.4453,1.4459,1.4465,1.4484,1.4491,1.4405,1.4405,1.4405,0,1.3957,1.4013,1.4027,1.4067,1.4089,1.4093,1.4134,1.4156,1.4202,1.4218,1.4208,1.4286,1.4309,1.4368,1.4382,1.4399,1.441,1.4395,1.4458,1.4463,1.4468,1.4487,1.4495,1.4406,1.4406,1.4406,1.4406,0,1.403,1.4069,1.4098,1.4142,1.4168,1.4208,1.4228,1.4253,1.4258,1.4274,1.4324,1.4353,1.4393,1.4408,1.4414,1.4467,1.4461,1.4454,1.4436,1.4476,1.4494,1.4502,1.4408,1.4407,1.4407,1.4407,0,0,1.4085,1.4137,1.4147,1.4166,1.4207,1.4237,1.4277,1.4317,1.4337,1.4369,1.4402,1.4454,1.4448,1.4472,1.448,1.4506,1.4549,1.4496,1.4497,1.4504,1.4608,1.4612,1.462,1.4549,1.455,1.4552,1.4605,0,1.4137,1.4209,1.4223,1.4285,1.432,1.4324,1.4359,1.4387,1.4403,1.4435,1.4453,1.4489,1.4479,1.4493,1.4519,1.4538,1.457,1.4535,1.4579,1.458,1.4569,1.4629,1.4634,1.4682,1.4612,1.4613,1.4614,0,1.4208,1.4241,1.4306,1.4341,1.4357,1.4388,1.4425,1.4456,1.4488,1.4498,1.4523,1.4529,1.457,1.4552,1.4608,1.4584,1.4603,1.4615,1.4617,1.4621,1.4598,1.4633,1.4698,1.4705,1.4625,1.4625,1.4624,0,1.4239,1.4301,1.4347,1.4364,1.4407,1.4428,1.4447,1.4477,1.45,1.4533,1.4547,1.4584,1.4604,1.4633,1.4648,1.4633,1.4703,1.4685,1.4711,1.4711,1.4724,1.4723,1.4792,1.474,1.4739,1.4739,1.4739,0,1.4296,1.4335,1.4362,1.439,1.4434,1.445,1.4493,1.4512,1.4539,1.457,1.4577,1.4606,1.4625,1.4658,1.467,1.4714,1.4724,1.4732,1.4734,1.4731,1.4729,1.4742,1.4738,1.4741,1.4741,1.474,1.474,0,1.4337,1.4357,1.4408,1.4444,1.4454,1.4485,1.4515,1.4543,1.4559,1.4599,1.461,1.4635,1.4673,1.4692,1.474,1.4748,1.4797,1.4798,1.4786,1.4787,1.4811,1.4808,1.489,1.49,1.4842,1.4842,1.4843,0,1.4371,1.4401,1.4441,1.4462,1.4482,1.4517,1.454,1.4557,1.4581,1.4619,1.4642,1.4681,1.4712,1.4773,1.4795,1.4831,1.4832,1.4859,1.4838,1.4833,1.4831,1.4828,1.4831,1.4862,1.4862,1.4863,1.4863,0,1.4428,1.4436,1.447,1.4507,1.4534,1.4564,1.4594,1.4611,1.4633,1.4659,1.4698,1.4723,1.4771,1.4809,1.4847,1.4865,1.4867,1.487,1.4877,1.4873,1.4864,1.4867,1.4795,1.4867,1.4867,1.4867,1.4866,1.4866,1.4466,1.4493,1.4524,1.4561,1.4585,1.4612,1.464,1.466,1.4693,1.4733,1.4742,1.4783,1.4813,1.4864,1.4884,1.4917,1.4911,1.4922,1.4925,1.4927,1.4927,1.486,1.4924,1.4924,1.4924,1.4924,1.4923,0,1.4522,1.4543,1.4577,1.4617,1.4646,1.4647,1.4679,1.4703,1.4739,1.4768,1.4799,1.4843,1.488,1.4906,1.4943,1.4964,1.4965,1.4973,1.497,1.4974,1.4931,1.492,1.497,1.497,1.497,1.497,1.497,1.497,1.4554,1.4599,1.4611,1.4668,1.4688,1.4729,1.4747,1.4772,1.4795,1.4845,1.4875,1.4892,1.4919,1.4958,1.4992,1.4998,1.5011,1.5018,1.5024,1.4983,1.4978,1.4973,1.4962,1.5021,1.5021,1.5065,1.5065,1.5065]},{"header":{"parameterUnit":"m.s-1","parameterCategory":1,"la1":30.2991,"la2":30.254,"lo1":-89.0895,"lo2":-89.0444,"dy":0.0017,"dx":0.0017,"nx":28,"ny":28,"refTime":"2024-09-30T09:00:00:Z","depth":0,"parameterNumber":3,"parameterNumberName":"V-component_of_WINDS"},"data":[0,0,0,0,0,0,0,0,0,0,0,0,0,0,0,0,0,0,0,0,0,0,0,0,0,0,0,0,0,0,0,0,0,0,0,0,0,0,0,0,0,0,0,0,0,0,0,0,0,0,0,0,0,0,0,0,0,0,2.1763,2.1762,0,2.1729,2.1729,2.1729,2.1665,2.1664,2.1663,2.1662,2.1628,2.1628,2.1629,0,0,0,0,0,0,0,0,0,0,0,0,0,2.1771,2.1771,2.1763,2.1762,2.1762,2.173,2.1729,2.1729,2.1665,2.1664,2.1662,2.1661,2.1628,2.1628,2.1629,0,0,0,0,0,0,0,0,0,0,0,0,0,2.1756,2.1771,2.1763,2.1726,2.1723,2.173,2.1729,2.1728,2.1666,2.1664,2.1662,2.166,2.1628,2.1628,2.1629,2.1668,0,0,2.163,2.163,0,0,0,0,0,0,0,0,2.1757,2.1756,2.1732,2.1729,2.1725,2.17,2.172,2.1708,2.1666,2.1687,2.1662,2.1659,2.1653,2.1652,2.165,2.1667,2.1665,2.163,2.163,2.163,2.1631,0,0,0,0,0,0,0,2.1758,2.1757,2.1749,2.1732,2.1727,2.1712,2.1707,2.1717,2.1681,2.1685,2.1681,2.1678,2.1651,2.1649,2.1648,2.1665,2.163,2.163,2.1631,2.1631,2.1712,2.1714,0,0,0,0,0,0,2.1764,2.1758,2.1751,2.1748,2.1737,2.1713,2.1708,2.171,2.1681,2.1675,2.1679,2.1675,2.165,2.1648,2.1647,2.169,2.163,2.1631,2.1631,2.171,2.1712,2.1714,0,0,0,0,0,0,2.1765,2.1764,2.1752,2.1752,2.1749,2.1715,2.1717,2.171,2.1708,2.1676,2.167,2.1684,2.1648,2.1646,2.1663,2.1688,2.1631,2.1631,2.1708,2.1711,2.1713,2.1778,0,0,0,0,0,0,2.1765,2.1765,2.178,2.1753,2.1749,2.1769,2.1718,2.1711,2.1709,2.1703,2.1679,2.1673,2.1646,2.1663,2.1664,2.1688,2.1632,2.1705,2.1709,2.1712,2.1774,2.1783,2.1791,0,0,0,0,0,2.1766,2.18,2.1781,2.178,2.1767,2.1771,2.1769,2.1737,2.1711,2.1725,2.1705,2.1674,2.1686,2.1665,2.1665,2.169,2.1703,2.1708,2.1712,2.177,2.1781,2.1791,0,0,0,0,0,0,2.1831,2.1795,2.1774,2.18,2.1789,2.176,2.1777,2.175,2.1746,2.174,2.1701,2.1696,2.1718,2.1706,2.1684,2.1726,2.169,2.1694,2.1734,2.1744,2.1753,2.1755,2.1632,0,0,0,0,0,2.1848,2.1854,2.1823,2.1849,2.1844,2.1812,2.1812,2.1789,2.1775,2.177,2.1751,2.1739,2.174,2.1742,2.1741,2.1772,2.1765,2.1789,2.1798,2.1805,2.1809,2.1824,2.1833,2.1728,2.1728,2.1728,0,0,2.1884,2.1865,2.1872,2.1861,2.185,2.1856,2.1808,2.1818,2.1822,2.1772,2.1786,2.1772,2.1756,2.178,2.179,2.177,2.1837,2.181,2.1816,2.1817,2.1829,2.1839,2.1848,2.1731,2.1731,2.173,0,0,2.1953,2.194,2.1959,2.1948,2.1931,2.1909,2.1914,2.1889,2.1878,2.1892,2.1854,2.1858,2.1861,2.1851,2.1846,2.191,2.1881,2.1911,2.1956,2.1971,2.1979,2.1986,2.2008,2.2016,2.1916,2.1916,2.1916,0,2.1999,2.2008,2.1973,2.1984,2.1981,2.1935,2.1955,2.1946,2.193,2.1928,2.1907,2.1908,2.1895,2.1915,2.1931,2.1929,2.1932,2.1913,2.1981,2.1987,2.1993,2.2014,2.2022,2.192,2.1919,2.1919,2.1918,0,2.2066,2.2072,2.209,2.2075,2.2073,2.2089,2.2056,2.2059,2.2035,2.2016,2.203,2.2012,2.2006,2.2009,2.1987,2.2026,2.2015,2.1988,2.195,2.2008,2.2026,2.2034,2.1925,2.1923,2.1922,2.1921,0,0,2.2174,2.2139,2.2146,2.2138,2.2116,2.212,2.2133,2.2127,2.2129,2.212,2.2129,2.2132,2.2107,2.2101,2.2077,2.209,2.2141,2.2061,2.206,2.2076,2.2182,2.2202,2.2212,2.2122,2.2123,2.2124,2.2183,0,2.2237,2.2257,2.2226,2.2253,2.2258,2.2215,2.2226,2.2214,2.2196,2.2197,2.2177,2.2179,2.2146,2.2142,2.2153,2.2133,2.2161,2.2128,2.2129,2.213,2.2134,2.2221,2.2242,2.2299,2.219,2.2191,2.2192,0,2.2313,2.2306,2.2334,2.2309,2.231,2.2321,2.2312,2.2314,2.2299,2.2284,2.2278,2.225,2.226,2.2224,2.2238,2.2216,2.2214,2.2204,2.2206,2.2204,2.2164,2.2221,2.2316,2.2324,2.2203,2.2202,2.2202,0,2.2388,2.2386,2.2402,2.2397,2.2368,2.2377,2.2365,2.2348,2.2346,2.2338,2.2337,2.2331,2.2328,2.2323,2.2294,2.227,2.2311,2.2272,2.2298,2.2299,2.2308,2.2308,2.2404,2.2309,2.2309,2.2309,2.2309,0,2.2461,2.2479,2.2435,2.2445,2.2464,2.2428,2.2448,2.2432,2.2417,2.2423,2.2385,2.2391,2.2352,2.2354,2.233,2.2344,2.2344,2.2332,2.2325,2.2335,2.2336,2.2333,2.2328,2.2311,2.2311,2.231,2.231,0,2.2548,2.2519,2.2533,2.2505,2.2498,2.2514,2.2489,2.2497,2.2476,2.2484,2.2483,2.2451,2.2451,2.2421,2.2415,2.2399,2.2423,2.241,2.2428,2.2423,2.2451,2.2449,2.2547,2.2558,2.2458,2.2459,2.246,0,2.2596,2.2609,2.2582,2.2583,2.2573,2.2575,2.2573,2.2538,2.2537,2.252,2.2529,2.2526,2.2522,2.2523,2.2499,2.2494,2.248,2.2515,2.2479,2.2487,2.2479,2.2478,2.2479,2.2522,2.2523,2.2525,2.2525,0,2.2684,2.2669,2.2666,2.266,2.2658,2.265,2.2641,2.2644,2.2605,2.2606,2.2605,2.2602,2.2595,2.2592,2.2583,2.257,2.2541,2.2537,2.2542,2.2552,2.2562,2.2556,2.2448,2.2535,2.2534,2.2533,2.2533,2.2532,2.2752,2.2761,2.2743,2.2742,2.2731,2.2722,2.2728,2.2708,2.2707,2.2698,2.2678,2.268,2.2663,2.2647,2.2638,2.2639,2.2621,2.263,2.2631,2.2634,2.2639,2.2562,2.2637,2.2637,2.2636,2.2636,2.2636,0,2.2837,2.2823,2.2822,2.281,2.2809,2.2781,2.2769,2.277,2.2773,2.276,2.2756,2.2754,2.2751,2.2727,2.272,2.2726,2.2712,2.2725,2.2724,2.2721,2.2655,2.2651,2.2736,2.2736,2.2736,2.2736,2.2736,2.2736,2.2881,2.2894,2.2877,2.2885,2.2871,2.2873,2.2868,2.286,2.2849,2.2849,2.2846,2.283,2.2812,2.2804,2.28,2.2793,2.2792,2.2809,2.2797,2.2736,2.2726,2.2717,2.2712,2.2809,2.281,2.2863,2.2864,2.2864]}]]